Montana Department of Transportation

Main Content

Accidents and Incidents Report

Hourly Weather Roundup

ASUS45 KTFX 291419
RWRMT 
MONTANA REGIONAL WEATHER ROUNDUP
NATIONAL WEATHER SERVICE GREAT FALLS MT
800 AM MDT SAT AUG 29 2015

NOTE: "FAIR" INDICATES FEW OR NO CLOUDS BELOW 12000 FEET WITH NO
SIGNIFICANT WEATHER AND/OR OBSTRUCTIONS TO VISIBILITY.

MTZ001.007-043-291500-
WEST OF THE DIVIDE
  
CITY           SKY/WX    TMP DP  RH WIND       PRES   REMARKS
KALISPELL      CLOUDY    51  44  77 CALM      29.82F SMOKE            
MISSOULA       CLOUDY    55  47  74 SW3       29.87S HAZE             
BUTTE          CLOUDY    60  43  53 N6        30.08R HAZE             
MULLAN PASS    MOCLDY    61  35  37 SE6       29.94S HAZE             
DEER LODGE       N/A     72  39  30 SW8       30.02S                  
EUREKA           N/A     54  43  66 CALM        N/A                   
HAMILTON         N/A     59  48  67 N1        29.88F                  
LIBBY            N/A     54  43  66 CALM      29.80F                  
PLAINS           N/A     52  43  71 CALM      29.82F                  
RONAN            N/A     54  47  77 CALM      29.88F                  
THOMPSON FALLS   N/A     59  43  55 NE9       29.84F                  
--------------------------------

MTZ008-052.055-291500-
SOUTHWEST MONTANA
  
CITY           SKY/WX    TMP DP  RH WIND       PRES   REMARKS
BOZEMAN        CLOUDY    61  45  55 S5        30.06R HAZE             
DILLON         CLOUDY    59  43  55 W5        30.06F HAZE             
W YELLOWSTONE  PTSUNNY   50  37  62 CALM      30.26R                  
THREE FORKS      N/A     57  34  42 CALM      30.03S                  
TWIN BRIDGES     N/A     61  45  55 SW5       30.05R                  
--------------------------------

MTZ009-010-012-014-046-048-049-054-291500-
EAST SLOPES AND CENTRAL MONTANA
  
CITY           SKY/WX    TMP DP  RH WIND       PRES   REMARKS
CUT BANK       CLOUDY    59  39  47 SE7       29.89F HAZE             
GREAT FALLS    PTSUNNY   73  39  29 S7        29.93S HAZE             
MALMSTROM AFB  PTSUNNY   69  42  37 S2        29.92S                  
HELENA         CLOUDY    65  44  46 W3        29.99S SMOKE            
CONRAD           N/A     64  47  54 S5        29.94S                  
--------------------------------

MTZ011-013-016-021-045-047-050-051-291500-
NORTH CENTRAL MONTANA
  
CITY           SKY/WX    TMP DP  RH WIND       PRES   REMARKS
HAVRE          CLOUDY    63  47  55 CALM      29.87F HAZE             
LEWISTOWN      CLOUDY    66  45  46 SE8       30.01S HAZE             
N BAR RANCH      N/A     61  45  55 CALM      30.07S HAZE             
CHINOOK          N/A     63  48  59 NE6       29.88S                  
FORT BENTON      N/A     66  48  52 CALM      29.90S                  
--------------------------------

MTZ017.020-022.027-061-062-291500-
NORTHEAST MONTANA
  
CITY           SKY/WX    TMP DP  RH WIND       PRES   REMARKS
GLASGOW        CLOUDY    66  46  48 E5        29.90R HAZE             
JORDAN           N/A     65  45  48 CALM      29.93S                  
SIDNEY         PTSUNNY   59  50  72 S5        29.93R                  
WOLF POINT     CLOUDY    62  48  60 CALM      29.89S HAZE             
MALTA            N/A     61  47  59 CALM      29.87R                  
PLENTYWOOD       N/A     64  46  52 SE9       29.88F                  
POPLAR           N/A     66  46  48 CALM      29.90S                  
SCOBEY           N/A     66  44  45 S2        29.89S                  
--------------------------------

MTZ028.42-056.058-291500-
SOUTHCENTRAL AND SOUTHEAST MONTANA
  
CITY           SKY/WX    TMP DP  RH WIND       PRES   REMARKS
BAKER          SUNNY     63  49  60 E5        29.99F HAZE             
BILLINGS       PTSUNNY   68  42  38 SW9       30.01S                  
LIVINGSTON     PTSUNNY   59  42  53 SW6       30.07R HAZE             
MILES CITY     SUNNY     63  46  54 SE5       29.96S HAZE             
EKALAKA          N/A     73  44  35 E12       30.00R                  
FORSYTH          N/A     70  45  40 CALM      29.95SLAUREL           N/A     62  44  51 SW5       30.00R                  
ROUNDUP          N/A     63  40  42 SW5       29.92S                  
--------------------------------

REGIONAL REPORTS...DAKOTAS
  
CITY           SKY/WX    TMP DP  RH WIND       PRES   REMARKS
WILLISTON      PTSUNNY   63  52  67 SW8       29.93R HAZE             
MINOT          PTSUNNY   64  52  64 S5        29.90F HAZE             
DICKINSON      MOSUNNY   65  52  62 S5        29.96F HAZE             
BEACH            N/A     64  52  63 S5        29.98S HAZE             
CROSBY           N/A     64  54  68 SW16      29.88S HAZE             
BISMARCK       CLOUDY    62  59  90 CALM      29.96R                  
GRAND FORKS    PTSUNNY   65  63  93 S10       29.91S                  
FARGO          SUNNY     65  60  84 S12       29.95F                  
BUFFALO SD       N/A     63  50  62 CALM      29.96S                  
RAPID CITY     MOSUNNY   61  55  81 CALM      30.06S                  
--------------------------------

REGIONAL REPORTS...WYOMING/IDAHO/WASHINGTON
  
CITY           SKY/WX    TMP DP  RH WIND       PRES   REMARKS
GILLETTE       SUNNY     70  41  34 SW14      30.09F                  
SHERIDAN       SUNNY     60  47  61 CALM      30.04S                  
BUFFALO WY     SUNNY     75  37  25 S5        30.12R                  
CODY           MOSUNNY   70  39  32 SW8       30.12R                  
YELLOWSTONE LA   N/A     46  41  82 CALM      30.36R                  
IDAHO FALLS    CLOUDY    62  50  64 CALM      30.07F                  
SALMON         PTSUNNY   57  48  72 SE3       29.95F                  
BOISE          CLOUDY    77  40  26 SE12      29.83R                  
SPOKANE        CLOUDY    67  46  47 SE3       29.64S HAZE             
--------------------------------

REGIONAL REPORTS...ALBERTA
  
CITY           SKY/WX    TMP DP  RH WIND       PRES   REMARKS
EDMONTON       SUNNY     54  45  71 W3        29.76S                  
CALGARY        CLOUDY    59  48  67 S6        29.83S SMOKE            
LETHBRIDGE     CLOUDY    57  46  67 VRB2      29.85R                  
MEDICINE HAT   CLOUDY    61  46  59 S7        29.82S SMOKE            
WATERTON GATE    N/A     46  43  87 S1          N/A                   
CARDSTON         N/A     54  41  62 NW1         N/A                   
MILK RIVER       N/A     57  46  67 CALM        N/A                   
ONEFOUR          N/A     63  37  39 E10         N/A                   
--------------------------------

REGIONAL REPORTS...SASKATCHEWAN
  
CITY           SKY/WX    TMP DP  RH WIND       PRES   REMARKS
SWIFT CURRENT  SUNNY     66  46  48 SW10      29.84F HAZE             
REGINA         CLOUDY    61  54  77 SE8       29.83R SMOKE            
SASKATOON      PTSUNNY   64  50  59 W8G18     29.72F                  
CYPRESS HILLS    N/A     66  37  34 W6          N/A                   
VAL MARIE        N/A     59  46  63 SW2         N/A                   
ROCKGLEN         N/A     64  46  52 SW10        N/A                   
ASSINIBOIA       N/A     55  50  82 W2          N/A                   
--------------------------------